OpenBCM V1.13 (Linux)

Packet Radio Mailbox

DB0FHN

[JN59NK Nuernberg]

 Login: GUEST





  
LU9DCE > KEP      06.03.19 20:34l 252 Lines 12349 Bytes #999 (0) @ WW
BID : 19630_LU9DCE
Read: DF7EAV DK3UZ GUEST
Subj: TLE 06 03
Path: DB0FHN<DB0BLO<DB0ERF<OK0NAG<OK0NBR<IR2UBX<EA2RCF<LU9DCE
Sent: 190306/1801Z 19630@LU9DCE.TOR.BA.ARG.SOAM LinBPQ6.0.18

            __    _  _  ___  ____   ___  ____    ____  ____  ____
           (  )  / )( \/ _ \(    \ / __)(  __)  (  _ \(  _ \/ ___)
           / (_/\) \/ (\__  )) D (( (__  ) _)    ) _ ( ) _ (\___ \
           \____/\____/(___/(____/ \___)(____)  (____/(____/(____/
               ESTACION DE PACKET RADIO - BUENOS AIRES (GF05OM)
                   BOLETINES INFORMATIVOS PROGRAMADOS (BIP)
                  SOPORTE TECNICO - HELLOCODELINUX@GMAIL.COM

+----------------------------------------------------------------------------+
OSCAR 7
1  7530U 74089B   19064.92698997 -.00000049 +00000-0 -24180-4 0  9996
2  7530 101.7306 033.7191 0012022 187.9869 240.0994 12.53637009027153
OSCAR 11 (UoSAT 2)
1 14781U 84021B   19065.05606968  .00000077  00000-0  15621-4 0  9990
2 14781  97.6221  94.6611 0007250 309.9906  50.0671 14.83067364883254
OSCAR 19 (LUSAT)
1 20442U 90005G   19065.41696880 -.00000016  00000-0  10311-4 0  9997
2 20442  98.6390   7.6511 0012900  96.0886 264.1768 14.32918692521443
EYESAT A
1 22825U 93061C   19065.17930119 -.00000021  00000-0  98944-5 0  9993
2 22825  98.8954  51.4746 0007566 308.3318  51.7183 14.30052497327014
ITAMSAT
1 22826U 93061D   19064.92549057 -.00000013 +00000-0 +12816-4 0  9997
2 22826 098.8893 051.2197 0007961 296.6240 063.4126 14.30385494326929
RADIO ROSTO
1 23439U 94085A   19064.97526326 -.00000017 +00000-0 +73364-3 0  9992
2 23439 064.8154 285.4695 0148596 133.2827 330.4969 11.27568157996088
JAS 2
1 24278U 96046B   19065.14135102 -.00000046  00000-0 -13219-4 0  9998
2 24278  98.5208 232.8165 0350931 151.0654 211.0449 13.53089476113661
TECHSAT 1B
1 25397U 98043D   19064.83044756 -.00000020  00000-0  10649-4 0  9994
2 25397  98.6793   6.3021 0001458  29.5797 330.5464 14.23661107 72958
ISS (ZARYA)
1 25544U 98067A   19065.37732757  .00003257  00000-0  59121-4 0  9991
2 25544  51.6411 152.3842 0003889  80.1435  38.2593 15.52785768159283
PCSAT
1 26931U 01043C   19064.90854304 -.00000024 +00000-0 +22569-4 0  9997
2 26931 067.0498 274.0702 0005332 273.0473 087.0018 14.30534125909918
SAUDISAT 1C
1 27607U 02058C   19065.44365204 -.00000032  00000-0  16374-4 0  9997
2 27607  64.5565   8.3152 0082288 276.3671  82.8065 14.75524710871656
CUTE-1
1 27844U 03031E   19064.89478416  .00000042  00000-0  38509-4 0  9994
2 27844  98.6867  74.6619 0009343 340.7729  19.3095 14.22163034813392
CUBESAT XI 4
1 27848U 03031J   19065.49054496  .00000026  00000-0  31587-4 0  9994
2 27848  98.6947  75.7247 0009417 350.6093   9.4907 14.21760352813331
MOZHAYETS 4
1 27939U 03042A   19065.40197958  .00000055  00000-0  18473-4 0  9990
2 27939  98.0210 203.3586 0013724  44.0200 316.2100 14.66758431825256
CUBESAT XI 5
1 28895U 05043F   19065.39121375  .00000090  00000-0  26189-4 0  9995
2 28895  97.9410 211.7999 0015879 324.6556  35.3593 14.63635376712229
CUTE-1.7+APD II
1 32785U 08021C   19065.54148724  .00000186  00000-0  25752-4 0  9992
2 32785  97.5487  70.1783 0011654 245.7152 114.2848 14.88258628588197
DELFI C3
1 32789U 08021G   19065.42622819  .00001593  00000-0  11115-3 0  9995
2 32789  97.4783 118.1792 0013769 119.8956 240.3642 15.06694181591268
SEEDS
1 32791U 08021J   19064.99604854  .00000218  00000-0  27531-4 0  9991
2 32791  97.5301  75.5071 0012339 221.6847 138.3433 14.90745742588517
YUBELEINY
1 32953U 08025A   19065.49826645  .00000020  00000-0  75656-4 0  9997
2 32953  82.5037 209.5422 0018986 359.6348   0.4714 12.43088010489366
PRISM (HITOMI)
1 33493U 09002B   19064.75980330  .00000375  00000-0  38565-4 0  9994
2 33493  98.1229 341.7425 0015313 166.4569 193.7065 14.96525658549450
KKS-1 (KISEKI)
1 33499U 09002H   19065.50689678  .00000069  00000-0  18175-4 0  9990
2 33499  98.3547 260.8490 0009331 170.6683 189.4700 14.75411350543868
SWISSCUBE
1 35932U 09051B   19065.02198464  .00000116  00000-0  37147-4 0  9996
2 35932  98.5741 228.0000 0008674 123.4104 236.7924 14.56249680501543
BEESAT
1 35933U 09051C   19064.96281162  .00000089  00000-0  31173-4 0  9999
2 35933  98.5773 229.6436 0006738 133.6804 226.4952 14.56343181501647
ITUPSAT 1
1 35935U 09051E   19065.44149405  .00000076  00000-0  28541-4 0  9999
2 35935  98.5887 230.3803 0009088 130.9070 229.2914 14.55508114501476
XIWANG-1 (HOPE-1)
1 36122U 09072B   19064.69721428 -.00000032 +00000-0 +27673-4 0  9996
2 36122 100.0739 072.0172 0006725 224.8137 135.2421 13.16348394443069
TISAT 1
1 36799U 10035E   19065.39758023  .00000235  00000-0  29852-4 0  9991
2 36799  98.1389 214.1921 0013517  71.0430 289.2251 14.91018261469221
JUGNU
1 37839U 11058B   19064.55212528  .00000297  00000-0  16252-4 0  9993
2 37839  19.9605 252.3553 0018920 248.0839 143.0777 14.12642911382374
SRMSAT
1 37841U 11058D   19064.04814338  .00000308  00000-0  24041-4 0  9995
2 37841  19.9724 310.0023 0011947 116.4288  27.8633 14.10625442381750
M-CUBED/EXP-1 PRIME
1 37855U 11061F   19064.84519028  .00000796  00000-0  48008-4 0  9990
2 37855 101.7276 266.5515 0174371  27.4968 333.5338 15.05172505401007
HORYU 2
1 38340U 12025D   19064.68085289  .00000163  00000-0  31888-4 0  9996
2 38340  98.3424 100.0480 0012840  98.6817 261.5846 14.75674412365677
STRAND 1
1 39090U 13009E   19065.13246379  .00000003  00000-0  16253-4 0  9994
2 39090  98.4984 272.7769 0008167 235.9413 124.0997 14.35072787315391
SOMP
1 39134U 13015E   19065.20914043  .00001398  00000-0  73980-4 0  9996
2 39134  64.8650 358.8658 0020828 320.4180  39.5425 15.19869175324719
BEESAT 3
1 39135U 13015F   19064.94755655 +.00000832 +00000-0 +51404-4 0  9998
2 39135 064.8709 016.5705 0009822 286.4172 073.5874 15.17240519323964
BEESAT 2
1 39136U 13015G   19065.27557715  .00001107  00000-0  66155-4 0  9998
2 39136  64.8712  19.0175 0011123 290.1145  69.8784 15.16680197324336
CUBEBUG 1
1 39153U 13018D   19065.21104017  .00000174  00000-0  29635-4 0  9992
2 39153  97.9750 163.9603 0017221 172.7002 187.4464 14.80520231316358
ZACUBE
1 39417U 13066B   19064.92038827 +.00000210 +00000-0 +32786-4 0  9992
2 39417 097.5691 084.2750 0059400 018.9706 341.3701 14.81063423285532
TRITON 1
1 39427U 13066M   19064.95123038 +.00000153 +00000-0 +32185-4 0  9994
2 39427 097.6658 048.8685 0114794 140.2922 220.6759 14.67786789282784
GOMX 1
1 39430U 13066Q   19065.46383173  .00000144  00000-0  35312-4 0  9998
2 39430  97.7319  28.9630 0150014 222.6448 136.3026 14.59203576281402
HUMSAT D
1 39433U 13066T   19065.13531586  .00000350  00000-0  39610-4 0  9992
2 39433  97.5686 116.8369 0029297 290.3254  69.4817 14.92096192287480
CUBEBUG 2
1 39440U 13066AA  19065.00017036  .00000202  00000-0  34899-4 0  9995
2 39440  97.6009  69.6294 0081728  65.5898 295.3813 14.75800986284537
FUNCUBE 1
1 39444U 13066AE  19064.64077221  .00000270  00000-0  39590-4 0  9998
2 39444  97.5681  85.8489 0058411  14.2676 346.0170 14.81871121284378
UWE-3
1 39446U 13066AG  19064.98050988  .00000218  00000-0  35518-4 0  9996
2 39446  97.5837  76.4900 0071084  42.7332 317.9377 14.78336170283790
SPROUT
1 39770U 14029E   19065.48438661  .00000797  00000-0  94572-4 0  9997
2 39770  97.8783 169.5178 0010266  70.4351 289.7945 14.87200779259344
UNISAT 6
1 40012U 14033C   19064.85990624  .00000158  00000-0  30824-4 0  9996
2 40012  97.7736 295.8868 0059789  76.3048 284.4808 14.73933203253245
DUCHIFAT 1
1 40021U 14033M   19064.75559125  .00000317  00000-0  38245-4 0  9994
2 40021  97.9223 349.0243 0013956  40.7823 319.4437 14.90536585255913
QB50P1
1 40025U 14033R   19064.72683638  .00000276  00000-0  35398-4 0  9992
2 40025  97.9069 344.5830 0013575  49.0263 311.2126 14.88876002255704
CHUBUSAT 1
1 40300U 14070C   19065.44981573  .00000828  00000-0  39146-4 0  9996
2 40300  97.3370 142.2312 0021643  63.6249 358.2413 15.21936787240167
NUDT-PHONESAT
1 40900U 15049B   19065.41315135  .00002315  00000-0  10327-3 0  9993
2 40900  97.4400  75.7909 0012521 182.2703 286.2877 15.22339459191790
ZDPS 2A
1 40901U 15049C   19065.37238044  .00000791  00000-0  42734-4 0  9996
2 40901  97.4608  72.7136 0012497 199.4905 271.5183 15.17532873191411
ZDPS 2B
1 40902U 15049D   19065.52355515  .00000704  00000-0  38645-4 0  9997
2 40902  97.4529  70.4978 0012673 196.7764 321.3310 15.17308092191412
XW-2A
1 40903U 15049E   19065.41215569  .00002086  00000-0  51799-4 0  9990
2 40903  97.3534 107.5273 0014182 155.2944 329.5575 15.41430725194181
KAITUO 1A
1 40904U 15049F   19065.47523259  .00000714  00000-0  41383-4 0  9999
2 40904  97.4654  69.2829 0013726 202.9372 310.6916 15.15263727191213
OBJECT G
1 40905U 15049G   19065.54148655  .00000722  00000-0  43053-4 0  9996
2 40905  97.4682  67.0307 0014701 197.0032 279.9795 15.14198697191116
XW-2C
1 40906U 15049H   19065.35556015  .00000663  00000-0  38429-4 0  9994
2 40906  97.4659  69.1801 0013999 194.7700 272.2047 15.15529404191196
XW-2D
1 40907U 15049J   19065.41157801  .00000915  00000-0  51420-4 0  9998
2 40907  97.4645  68.9143 0013220 191.5374 274.6740 15.15707689191219
LILACSAT 2
1 40908U 15049K   19065.35270197  .00000461  00000-0  29146-4 0  9992
2 40908  97.4764  67.8605 0014869 198.0631 268.9423 15.13715111191021
XW-2F
1 40910U 15049M   19065.40406837  .00001319  00000-0  69875-4 0  9999
2 40910  97.4626  70.6973 0014366 184.8573 285.0919 15.17066839191201
XW-2B
1 40911U 15049N   19065.44934863  .00000470  00000-0  28193-4 0  9994
2 40911  97.4662  69.5722 0013250 192.3797 327.1041 15.15638940191114
KAITUO 1B
1 40912U 15049P   19065.39456175  .00001236  00000-0  61592-4 0  9995
2 40912  97.4515  74.1117 0015062 169.3396 298.3907 15.19347070191478
TIANWANG 1C (TW-1C)
1 40926U 15051B   19065.44447646  .00010896  00000-0  17322-3 0  9995
2 40926  97.1510 111.8365 0009710  47.2761  77.2770 15.53434686193968
